Weather in Loen

Norway     61°52′12″N   6°51′34″E
temp.,
°C
wind,
m/s
gust,
m/s
humid.,
%
clouds,
%
prec.,
mm/h
press.,
hPa
HPBL,
m
29 june, wed
wed2923:00+7n118710 0.0 101910
02:00+6ene119046 0.0 102010
05:00+6ese22855 0.0 101910
08:00+10ese11715 0.0 1018254
11:00+13se12545 0.0 1018769
14:00+16sse12435 0.0 10181139
17:00+18ssw12395 0.0 10171486
20:00+18nnw11430 0.0 1016946
30 june, thu
thu3023:00+11n229010 0.0 101819
02:00+9ne119364 0.0 101810
05:00+10s11899 0.0 101710
08:00+14ssw11675 0.0 1017269
11:00+17wsw1152100 0.0 10161065
14:00+19sw124312 0.0 10151726
17:00+21ssw22375 0.0 10141811
20:00+20nw11434 0.0 1014884
1 july, fri
fri123:00+14n228560 0.0 101621
02:00+12ne11877 0.0 101510
05:00+12ese117078 0.0 101411
08:00+17ese224654 0.0 1014218
11:00+20sse22330 0.0 10131157
14:00+21sse33345 0.0 10121604
17:00+22s243626 0.0 10102047
20:00+22sse2441100 0.0 10091609
2 july, sat
sat223:00+16s2261100 0.0 101015
02:00+11wsw2282100 0.0 101132
05:00+11w2296100 0.3 1011224
08:00+9w2296100 5.3 1012279
11:00+9w2295100 6.2 1013255
14:00+11wsw1178100 7.9 1013634
17:00+13w2264100 0.5 1011813
20:00+11wsw227769 1.6 1012326
3 july, sun
sun323:00+9sw228876 1.3 101233
02:00+7s229257 2.0 101244
05:00+8s338797 0.1 1011128
08:00+8ssw228770 0.7 1011160
11:00+9s5481100 1.7 1011719
14:00+10ssw347698 2.9 1011794
17:00+8s348699 0.7 1012358
20:00+7sw239198 2.1 1013176